Regional Weather Roundup
Issued by NWS

Home | Current Version | Previous Version | Graphics & Text | Print | Product List | Glossary On
Versions: 1 2 3 4 5 6 7 8 9 10 11 12 13 14 15 16 17 18 19 20 21 22 23 24 25 26 27 28 29 30 31 32 33 34 35 36 37 38 39 40 41 42 43 44 45 46 47 48 49 50
000
ASUS45 KSLC 221410
RWRUT

UTAH REGIONAL WEATHER ROUNDUP
NATIONAL WEATHER SERVICE SALT LAKE CITY UT
700 AM MST SAT NOV 22 2014

UTZ001>011-023>025-221500-

NORTHERN UTAH

CITY           SKY/WX    TMP DP  RH WIND       PRES   REMARKS
BRIGHAM CITY   CLOUDY    43  26  52 SW9       29.84F
HILL AFB       CLOUDY    45  24  43 S18       29.86F
LOGAN          PTCLDY    36  28  73 NE5       29.80F WCI  32
OGDEN          CLOUDY    46  25  43 S18G24    29.84F
PROVO AIRPORT  MOCLDY    30  21  69 CALM      29.96S
SALT LAKE CITY MOCLDY    45  24  43 S20       29.87F
VERNAL         MOCLDY    27  19  72 CALM      30.00F
WENDOVER       MOCLDY    30  19  64 SW3       29.86F
HEBER CITY     PTCLDY    28  21  74 SE3       29.93F
WEST JORDAN    PTCLDY    41  28  60 S16       29.91F

$$

UTZ012>022-026-027-221500-

SOUTHERN/CENTRAL UTAH

CITY           SKY/WX    TMP DP  RH WIND       PRES   REMARKS
BLANDING       PTCLDY    30  19  63 CALM      30.18R
BRYCE CANYON   CLEAR     13  10  88 CALM      30.12R
CEDAR CITY     PTCLDY    34  22  61 SE8       30.07F WCI  27
DELTA          MOCLDY    37  25  60 S15       29.95F WCI  28
MILFORD        CLEAR     34  22  61 SW17      30.01F WCI  23
MOAB/CYNLANDS  CLEAR     23  13  65 CALM      30.06R
PRICE          PTCLDY    27  14  58 E3        30.03F
ST GEORGE      MOSUNNY   36  19  51 CALM      30.11F
KANAB          MOCLDY    23  14  68 NE3       30.16S

$$

REGIONAL REPORTS     COLORADO/ARIZONA

CITY           SKY/WX    TMP DP  RH WIND       PRES   REMARKS
CRAIG, CO      CLOUDY    22  17  81 E5        30.01R WCI  16
GRAND JUNCTION PTCLDY    22  15  75 E3        30.08R
RIFLE          CLEAR     19  15  84 SW5       30.11R WCI  12
MONTROSE       CLEAR     22  17  81 S7        30.11S WCI  13
CORTEZ         CLEAR     17  14  88 NE6       30.12S WCI   9
PAGE, AZ       NOT AVBL
GRAND CANYON   MOCLDY    13   8  81 CALM      30.16R
KINGMAN        CLEAR     31  19  61 E3        30.09R
FLAGSTAFF      PTCLDY    18  12  77 CALM      30.16R

$$

REGIONAL REPORTS    NEVADA/IDAHO/WYOMING

CITY           SKY/WX    TMP DP  RH WIND       PRES   REMARKS
LAS VEGAS, NV  CLEAR     48  29  47 S9        30.01S
ELY            CLEAR     34  21  59 S10       30.00F WCI  26
ELKO           RAIN      41  37  86 SW7       29.89R
POCATELLO, ID  LGT RAIN  36  34  92 VRB7      29.75F WCI  30
BURLEY         LGT RAIN  43  37  79 S17       29.73F
EVANSTON, WY   PTCLDY    33  22  63 SW20      29.85F WCI  21
ROCK SPRINGS   PTCLDY    33  18  53 S9        29.85F WCI  25
KEMMERER       MOCLDY    34  23  64 SW26G37   29.82F WCI  21

$$



USA.gov is the U.S. government's official web portal to all federal, state and local government web resources and services.